N1VFU Weather Reports


Display with metric or nautical units.
time (UTC)temp
F
wind
direction
speed
MPH
gust
MPH
rain 1hr
in
rain 24hr
in
rain mn
in
humidity
%
barometer
mb
20201030104229 33 142 0.0 1.0 0.00 0.83 0.06 95 1012.9
20201030103719 33 181 1.0 2.0 0.00 0.83 0.06 95 1013.1
20201030103231 33 134 0.0 1.0 0.00 0.83 0.06 95 1013.5
20201030102721 33 175 0.0 3.0 0.00 0.83 0.06 95 1013.4
20201030102231 33 175 0.0 3.0 0.00 0.83 0.06 95 1013.5
20201030101721 33 160 0.0 3.0 0.00 0.83 0.06 95 1012.7
20201030101217 33 183 1.0 4.0 0.00 0.83 0.06 95 1012.3
20201030100731 33 195 1.0 4.0 0.00 0.83 0.06 95 1012.4
20201030100230 33 191 1.0 3.0 0.00 0.83 0.06 95 1012.7
20201030095728 33 200 0.0 3.0 0.00 0.83 0.06 94 1012.7
20201030095227 33 171 2.0 7.0 0.00 0.83 0.06 94 1013.0
20201030094727 33 169 0.0 7.0 0.00 0.83 0.06 94 1013.1
20201030094224 34 143 1.0 5.0 0.00 0.83 0.06 94 1013.3
20201030093722 34 136 1.0 5.0 0.00 0.83 0.06 94 1013.2
20201030093230 34 170 2.0 3.0 0.00 0.83 0.06 94 1013.2
20201030092719 34 189 1.0 5.0 0.00 0.83 0.06 94 1013.1
20201030092219 34 148 2.0 8.0 0.00 0.83 0.06 94 1013.0
20201030091721 34 141 3.0 7.0 0.00 0.83 0.06 94 1013.1
20201030091227 34 168 2.0 6.0 0.00 0.83 0.06 94 1013.3
20201030090720 34 108 3.0 6.0 0.00 0.83 0.06 94 1013.0
20201030090223 35 162 1.0 4.0 0.00 0.83 0.06 94 1012.7
20201030085720 35 146 1.0 4.0 0.00 0.83 0.06 94 1012.6
20201030085229 35 169 1.0 3.0 0.00 0.83 0.06 95 1012.7
20201030084721 35 162 1.0 3.0 0.00 0.83 0.06 95 1012.5
20201030084222 35 170 0.0 2.0 0.00 0.83 0.06 95 1012.5
20201030083719 35 156 1.0 3.0 0.00 0.83 0.06 95 1012.2
20201030083220 35 154 1.0 3.0 0.00 0.83 0.06 95 1012.2
20201030082717 35 150 0.0 3.0 0.00 0.83 0.06 95 1012.4
20201030082220 35 178 1.0 3.0 0.00 0.83 0.06 95 1012.3
20201030081720 35 158 0.0 4.0 0.00 0.83 0.06 95 1012.4
20201030081222 35 160 1.0 4.0 0.01 0.83 0.06 95 1012.5
20201030080721 35 159 1.0 4.0 0.01 0.83 0.06 95 1012.4
20201030080222 35 162 1.0 5.0 0.01 0.83 0.06 95 1012.7
20201030075715 35 169 1.0 6.0 0.01 0.83 0.06 95 1012.6
20201030075215 35 159 4.0 6.0 0.01 0.83 0.06 95 1012.3
20201030074711 35 155 1.0 3.0 0.01 0.83 0.06 96 1011.9
20201030074231 35 248 0.0 1.0 0.01 0.83 0.06 96 1012.2
20201030073728 35 245 0.0 0.0 0.02 0.83 0.06 96 1012.7
20201030073230 35 245 0.0 0.0 0.02 0.83 0.06 96 1012.7
20201030072725 35 245 0.0 0.0 0.02 0.83 0.06 96 1012.3
20201030072232 35 245 0.0 2.0 0.02 0.83 0.06 96 1011.7
20201030071723 35 245 0.0 2.0 0.03 0.83 0.06 96 1011.9
20201030071224 35 214 0.0 1.0 0.02 0.82 0.05 96 1012.4
20201030070722 35 188 0.0 0.0 0.03 0.82 0.05 96 1012.3
20201030070231 35 188 0.0 0.0 0.04 0.82 0.05 96 1012.6
20201030065722 35 176 0.0 0.0 0.04 0.82 0.05 95 1012.8
20201030065222 35 176 0.0 0.0 0.04 0.82 0.05 95 1012.9
20201030064731 35 176 0.0 0.0 0.05 0.83 0.05 95 1013.0
20201030064222 35 176 0.0 0.0 0.05 0.83 0.05 95 1012.8
20201030063720 35 176 0.0 0.0 0.05 0.82 0.04 95 1012.9
20201030063224 35 176 0.0 0.0 0.06 0.82 0.04 95 1012.5
20201030062730 35 176 0.0 1.0 0.06 0.82 0.04 95 1012.4
20201030062226 35 176 0.0 1.0 0.06 0.82 0.04 95 1012.2
20201030061719 35 188 0.0 3.0 0.05 0.81 0.03 95 1012.1
20201030061220 36 171 1.0 3.0 0.06 0.81 0.03 95 1012.2
20201030060718 36 173 0.0 2.0 0.05 0.80 0.02 95 1012.2
20201030060221 36 249 0.0 3.0 0.04 0.79 0.01 95 1012.1
20201030055722 36 150 1.0 3.0 0.04 0.79 0.01 94 1012.1
20201030055227 36 167 1.0 5.0 0.04 0.79 0.01 95 1011.9
20201030054721 36 161 1.0 5.0 0.03 0.78 0.78 95 1012.2
20201030054230 36 167 0.0 3.0 0.04 0.78 0.78 95 1012.0
20201030053722 36 172 1.0 4.0 0.03 0.77 0.77 95 1012.0
20201030053219 37 172 2.0 4.0 0.02 0.76 0.76 95 1012.2
20201030052716 37 133 0.0 1.0 0.02 0.76 0.76 95 1012.3
20201030052223 37 158 0.0 0.0 0.03 0.76 0.76 95 1012.3
20201030051715 37 158 0.0 0.0 0.03 0.76 0.76 95 1012.1
20201030051222 37 158 0.0 0.0 0.02 0.75 0.75 95 1011.9
20201030050729 37 158 0.0 0.0 0.02 0.75 0.75 95 1011.5
20201030050214 37 155 0.0 0.0 0.02 0.75 0.75 95 1011.5
20201030045715 37 155 0.0 3.0 0.02 0.75 0.75 95 1011.6
20201030045218 37 143 0.0 3.0 0.02 0.75 0.75 95 1011.7
20201030044716 37 172 1.0 3.0 0.03 0.75 0.75 95 1011.5
20201030044217 37 192 0.0 2.0 0.02 0.74 0.74 95 1011.6
20201030043714 37 153 0.0 2.0 0.02 0.74 0.74 95 1011.7
20201030043227 37 162 0.0 2.0 0.02 0.74 0.74 95 1011.7
20201030042714 37 162 1.0 2.0 0.02 0.74 0.74 95 1011.6
20201030042212 37 191 0.0 2.0 0.01 0.73 0.73 95 1011.8
20201030041711 37 200 0.0 2.0 0.01 0.73 0.73 95 1011.7
20201030041214 37 178 0.0 4.0 0.02 0.73 0.73 95 1011.7
20201030040731 37 174 2.0 4.0 0.02 0.73 0.73 95 1011.8
20201030040232 37 173 1.0 2.0 0.02 0.73 0.73 95 1011.8
20201030035729 37 184 0.0 1.0 0.02 0.73 0.73 96 1012.0
20201030035230 37 211 0.0 1.0 0.03 0.73 0.73 96 1012.1
20201030034721 37 211 0.0 0.0 0.02 0.72 0.72 96 1012.0
20201030034214 37 211 0.0 0.0 0.02 0.72 0.72 96 1012.1
20201030033713 37 211 0.0 0.0 0.03 0.72 0.72 96 1011.9
20201030033213 37 211 0.0 0.0 0.03 0.72 0.72 96 1011.8
20201030032713 37 211 0.0 0.0 0.03 0.72 0.72 96 1011.6
20201030032234 37 211 0.0 1.0 0.04 0.72 0.72 96 1011.7
20201030031731 37 224 0.0 1.0 0.04 0.72 0.72 96 1011.5
20201030031228 38 224 0.0 1.0 0.04 0.71 0.71 96 1011.6
20201030030729 38 188 0.0 0.0 0.04 0.71 0.71 96 1011.7
20201030030237 38 173 0.0 0.0 0.05 0.71 0.71 96 1012.0
20201030025728 38 173 0.0 0.0 0.05 0.71 0.71 96 1011.9
20201030025224 38 173 0.0 0.0 0.05 0.70 0.70 96 1012.0
20201030024722 38 173 0.0 0.0 0.05 0.70 0.70 96 1012.0
20201030024235 38 173 0.0 0.0 0.05 0.70 0.70 96 1012.0
20201030023724 38 173 0.0 0.0 0.05 0.69 0.69 95 1012.1
20201030023235 38 173 0.0 0.0 0.05 0.69 0.69 95 1011.9
20201030022723 38 173 0.0 0.0 0.06 0.69 0.69 95 1012.0
20201030022227 38 173 0.0 1.0 0.05 0.68 0.68 95 1012.0
20201030021716 38 173 0.0 1.0 0.05 0.68 0.68 95 1011.9
20201030021226 38 192 0.0 0.0 0.04 0.67 0.67 95 1012.0
20201030020720 38 192 0.0 0.0 0.05 0.67 0.67 95 1012.0
20201030020217 38 201 0.0 0.0 0.04 0.66 0.66 95 1011.9
20201030015723 38 214 0.0 0.0 0.04 0.66 0.66 95 1011.6
20201030015216 38 250 0.0 0.0 0.04 0.65 0.65 95 1011.6
20201030014715 38 250 0.0 1.0 0.04 0.65 0.65 95 1011.4
20201030014216 38 250 0.0 1.0 0.05 0.65 0.65 95 1011.2
20201030013713 38 250 0.0 1.0 0.05 0.64 0.64 95 1011.3
20201030013212 38 251 0.0 1.0 0.06 0.64 0.64 95 1011.1
20201030012710 38 237 0.0 1.0 0.05 0.63 0.63 95 1011.1
20201030012235 38 253 0.0 3.0 0.06 0.63 0.63 95 1011.2
20201030011716 38 255 0.0 3.0 0.06 0.63 0.63 95 1011.3
20201030011215 39 225 0.0 2.0 0.07 0.63 0.63 95 1011.1
20201030010717 39 242 0.0 1.0 0.06 0.62 0.62 95 1010.9
20201030010222 39 229 0.0 1.0 0.06 0.62 0.62 95 1011.0
20201030005720 39 246 0.0 2.0 0.06 0.62 0.62 95 1011.1
20201030005214 39 246 1.0 2.0 0.05 0.61 0.61 95 1011.1
20201030004711 39 257 0.0 2.0 0.06 0.61 0.61 95 1011.1
20201030004218 39 238 0.0 2.0 0.05 0.60 0.60 95 1011.1
20201030003713 39 230 1.0 2.0 0.05 0.59 0.59 95 1011.3
20201030003213 39 266 0.0 1.0 0.04 0.58 0.58 95 1011.2
20201030002711 39 242 0.0 3.0 0.05 0.58 0.58 95 1011.2
20201030002231 39 250 1.0 3.0 0.05 0.57 0.57 95 1011.3
20201030001715 40 236 0.0 0.0 0.05 0.57 0.57 95 1011.4
20201030001218 40 269 0.0 1.0 0.05 0.56 0.56 95 1011.3
20201030000717 40 233 0.0 2.0 0.06 0.56 0.56 95 1011.4
20201030000218 40 239 0.0 5.0 0.06 0.56 0.56 95 1011.4
20201029235716 40 258 0.0 5.0 0.08 0.56 0.56 96 1011.3
20201029235213 40 233 0.0 1.0 0.09 0.56 0.56 96 1011.6
20201029234710 40 230 0.0 2.0 0.09 0.55 0.55 96 1011.5
20201029234234 40 224 1.0 2.0 0.10 0.55 0.55 96 1011.4
20201029233728 40 245 0.0 3.0 0.10 0.54 0.54 96 1011.3
20201029233240 40 237 0.0 3.0 0.11 0.54 0.54 96 1011.3
20201029232727 40 226 0.0 0.0 0.11 0.53 0.53 96 1011.4
20201029232229 41 226 0.0 0.0 0.11 0.52 0.52 96 1011.5
20201029231726 41 226 0.0 1.0 0.12 0.52 0.52 96 1011.5
20201029231213 41 243 0.0 1.0 0.12 0.51 0.51 96 1011.5
20201029230710 41 202 0.0 0.0 0.12 0.50 0.50 96 1011.6
20201029230231 41 200 0.0 0.0 0.12 0.50 0.50 96 1011.7
20201029225710 41 200 0.0 0.0 0.11 0.48 0.48 96 1011.7
20201029225235 41 200 0.0 0.0 0.11 0.47 0.47 96 1011.6
20201029224734 41 200 0.0 0.0 0.11 0.46 0.46 96 1011.5
20201029224229 41 200 0.0 0.0 0.11 0.45 0.45 96 1011.4
20201029223729 41 236 0.0 0.0 0.10 0.44 0.44 96 1011.4
20201029223240 41 236 0.0 0.0 0.10 0.43 0.43 96 1011.4
20201029222730 41 236 0.0 0.0 0.10 0.42 0.42 96 1011.3
20201029222232 42 236 0.0 0.0 0.10 0.41 0.41 96 1011.4
20201029221726 42 236 0.0 0.0 0.10 0.40 0.40 96 1011.4
20201029221227 42 236 0.0 0.0 0.09 0.39 0.39 96 1011.4
20201029220724 42 236 0.0 0.0 0.08 0.38 0.38 96 1011.4
20201029220240 42 236 0.0 0.0 0.09 0.38 0.38 96 1011.3
20201029215715 42 236 0.0 0.0 0.08 0.37 0.37 96 1011.3
20201029215226 42 236 0.0 0.0 0.08 0.36 0.36 96 1011.3
20201029214721 42 236 0.0 0.0 0.07 0.35 0.35 96 1011.3
20201029214214 42 236 0.0 0.0 0.07 0.34 0.34 96 1011.4
20201029213714 42 236 0.0 0.0 0.07 0.33 0.33 96 1011.6
20201029213215 43 236 0.0 0.0 0.08 0.33 0.33 96 1011.6
20201029212716 43 236 0.0 0.0 0.07 0.32 0.32 96 1011.4
20201029212224 43 236 0.0 0.0 0.07 0.31 0.31 96 1011.4
20201029211712 43 236 0.0 0.0 0.07 0.30 0.30 97 1011.3
20201029211215 43 236 0.0 0.0 0.08 0.30 0.30 97 1011.2
20201029210729 43 236 0.0 0.0 0.08 0.30 0.30 97 1011.3
20201029210316 44 236 0.0 0.0 0.08 0.29 0.29 97 1011.2
20201029205730 44 236 0.0 0.0 0.08 0.29 0.29 97 1011.0
20201029205223 44 236 0.0 0.0 0.08 0.28 0.28 97 1010.8
20201029204717 44 236 0.0 0.0 0.08 0.28 0.28 97 1011.0
20201029204230 44 236 0.0 0.0 0.08 0.27 0.27 97 1010.9
20201029203723 44 236 0.0 0.0 0.07 0.26 0.26 97 1011.0
20201029203217 44 236 0.0 0.0 0.07 0.25 0.25 97 1011.0
20201029202724 44 236 0.0 0.0 0.07 0.25 0.25 97 1011.1
20201029202218 44 236 0.0 0.0 0.06 0.24 0.24 97 1011.3
20201029201718 44 236 0.0 0.0 0.06 0.23 0.23 97 1011.4
20201029201219 44 250 0.0 0.0 0.05 0.22 0.22 97 1011.4
20201029200720 44 250 0.0 0.0 0.05 0.22 0.22 97 1011.6
20201029200233 44 250 0.0 0.0 0.05 0.21 0.21 97 1011.7
20201029195725 44 250 0.0 0.0 0.05 0.21 0.21 97 1011.7
20201029195229 44 250 0.0 0.0 0.05 0.20 0.20 97 1011.8
20201029194728 44 250 0.0 0.0 0.05 0.20 0.20 97 1011.8
20201029194229 44 250 0.0 0.0 0.04 0.19 0.19 97 1011.8
20201029193728 44 250 0.0 0.0 0.05 0.19 0.19 97 1011.8
20201029193229 44 250 0.0 0.0 0.04 0.18 0.18 97 1011.8
20201029192728 44 250 0.0 0.0 0.05 0.18 0.18 97 1011.8
20201029192231 44 250 0.0 0.0 0.06 0.18 0.18 97 1011.6
20201029191730 44 250 0.0 0.0 0.06 0.17 0.17 97 1011.9
20201029191244 44 250 0.0 2.0 0.07 0.17 0.17 97 1012.0
20201029190729 44 250 0.0 2.0 0.07 0.17 0.17 97 1012.0
20201029190232 44 236 0.0 0.0 0.07 0.16 0.16 97 1012.1
20201029185720 44 241 0.0 0.0 0.08 0.16 0.16 97 1012.2
20201029185217 44 241 0.0 0.0 0.08 0.15 0.15 97 1012.4
20201029184724 44 241 0.0 0.0 0.08 0.15 0.15 97 1012.4
20201029184222 44 228 0.0 0.0 0.09 0.15 0.15 97 1012.6
20201029183718 44 228 0.0 0.0 0.09 0.14 0.14 97 1012.7
20201029182712 44 208 0.0 0.0 0.09 0.13 0.13 97 1012.7
20201029182225 44 208 0.0 0.0 0.09 0.12 0.12 97 1012.8
20201029181722 44 208 0.0 0.0 0.09 0.11 0.11 97 1013.0
20201029181241 44 208 0.0 0.0 0.08 0.10 0.10 97 1013.0
20201029180730 44 208 0.0 0.0 0.09 0.10 0.10 97 1013.0
20201029180228 44 208 0.0 0.0 0.08 0.09 0.09 97 1013.1
20201029175725 44 208 0.0 0.0 0.07 0.08 0.08 97 1013.2
20201029175225 44 208 0.0 0.0 0.06 0.07 0.07 97 1013.1
20201029174722 44 208 0.0 0.0 0.05 0.06 0.06 97 1013.2
20201029174230 44 208 0.0 0.0 0.05 0.06 0.06 97 1013.3
20201029173726 44 208 0.0 0.0 0.04 0.05 0.05 97 1013.2
20201029173228 44 208 0.0 0.0 0.03 0.04 0.04 97 1013.1
20201029172723 44 208 0.0 0.0 0.03 0.04 0.04 97 1013.1
20201029172232 44 208 0.0 0.0 0.02 0.03 0.03 97 1013.0
20201029171725 44 208 0.0 0.0 0.01 0.02 0.02 97 1013.2
20201029171230 43 208 0.0 0.0 0.01 0.02 0.02 97 1013.1
20201029170733 43 208 0.0 0.0 0.00 0.01 0.01 97 1013.2
20201029170219 43 208 0.0 0.0 0.00 0.01 0.01 97 1013.1
20201029165721 43 208 0.0 0.0 0.00 0.01 0.01 97 1013.2
20201029165221 43 208 0.0 0.0 0.00 0.01 0.01 97 1013.2
20201029164716 43 208 0.0 0.0 0.00 0.01 0.01 97 1013.3
20201029164217 43 208 0.0 0.0 0.00 0.01 0.01 97 1013.3
20201029163715 43 208 0.0 0.0 0.00 0.01 0.01 97 1013.2
20201029163230 42 208 0.0 0.0 0.00 0.01 0.01 97 1013.3
20201029162717 42 208 0.0 0.0 0.00 0.01 0.01 97 1013.3
20201029162223 42 208 0.0 0.0 0.00 0.01 0.01 97 1013.4
20201029161713 42 208 0.0 0.0 0.00 0.01 0.01 97 1013.5
20201029161216 42 208 0.0 0.0 0.00 0.01 0.01 97 1013.5
20201029160715 42 208 0.0 0.0 0.00 0.01 0.01 97 1013.8
20201029160230 42 208 0.0 0.0 0.00 0.01 0.01 97 1014.0
20201029155726 42 208 0.0 0.0 0.00 0.01 0.01 97 1014.0
20201029155227 42 208 0.0 0.0 0.00 0.01 0.01 97 1014.2
20201029154735 41 208 0.0 0.0 0.00 0.03 0.01 97 1014.3
20201029154228 41 208 0.0 0.0 0.00 0.03 0.01 97 1014.5
20201029153728 41 208 0.0 0.0 0.00 0.03 0.01 97 1014.7
20201029153225 41 205 0.0 0.0 0.00 0.03 0.01 97 1014.7
20201029152723 41 205 0.0 0.0 0.00 0.03 0.01 97 1014.8
20201029152224 41 205 0.0 0.0 0.00 0.03 0.01 97 1014.9
20201029151723 41 205 0.0 0.0 0.00 0.03 0.01 97 1015.0
20201029151232 40 205 0.0 0.0 0.00 0.03 0.01 97 1015.1
20201029150732 40 205 0.0 0.0 0.00 0.03 0.01 97 1015.0
20201029150221 40 205 0.0 0.0 0.00 0.03 0.01 97 1015.0
20201029145712 40 205 0.0 0.0 0.00 0.03 0.01 97 1015.1
20201029145217 40 205 0.0 0.0 0.00 0.03 0.01 97 1015.3
20201029144711 40 205 0.0 0.0 0.00 0.06 0.01 97 1015.5
20201029144212 39 205 0.0 0.0 0.00 0.06 0.01 97 1015.5
20201029143712 39 205 0.0 0.0 0.00 0.06 0.01 97 1015.5
20201029143232 39 205 0.0 0.0 0.00 0.06 0.01 97 1015.4
20201029142729 39 205 0.0 0.0 0.00 0.06 0.01 97 1015.5
20201029142217 39 205 0.0 0.0 0.00 0.06 0.01 97 1015.5
20201029141726 39 205 0.0 0.0 0.00 0.06 0.01 97 1015.5
20201029141216 39 205 0.0 0.0 0.00 0.06 0.01 97 1015.6
20201029140714 39 205 0.0 0.0 0.00 0.06 0.01 97 1015.8
20201029140219 38 205 0.0 0.0 0.00 0.06 0.01 97 1015.7
20201029135716 38 205 0.0 0.0 0.00 0.06 0.01 97 1015.8
20201029135214 38 205 0.0 0.0 0.00 0.06 0.01 97 1015.6
20201029134712 38 205 0.0 0.0 0.00 0.09 0.01 97 1015.8
20201029134211 38 205 0.0 0.0 0.00 0.09 0.01 97 1015.7
20201029133711 37 205 0.0 0.0 0.00 0.09 0.01 97 1015.9
20201029133233 37 205 0.0 0.0 0.00 0.09 0.01 97 1015.9
20201029132728 37 205 0.0 0.0 0.00 0.09 0.01 97 1015.7
20201029132231 37 205 0.0 0.0 0.00 0.09 0.01 97 1015.8
20201029131715 37 205 0.0 0.0 0.00 0.09 0.01 97 1015.7
20201029131234 36 205 0.0 0.0 0.00 0.09 0.01 97 1015.8
20201029130710 36 205 0.0 0.0 0.00 0.09 0.01 97 1015.7
20201029130212 36 205 0.0 0.0 0.00 0.09 0.01 97 1015.8
20201029125717 36 205 0.0 0.0 0.00 0.09 0.01 97 1015.6
20201029125212 36 205 0.0 0.0 0.00 0.09 0.01 97 1015.5
20201029124716 35 205 0.0 0.0 0.00 0.14 0.01 97 1015.5
20201029124213 35 205 0.0 0.0 0.00 0.14 0.01 97 1015.7
20201029123712 35 205 0.0 0.0 0.00 0.14 0.01 97 1015.6
20201029123242 35 205 0.0 0.0 0.00 0.14 0.01 97 1015.5
20201029122710 35 205 0.0 0.0 0.00 0.14 0.01 97 1015.5
20201029122216 35 205 0.0 0.0 0.00 0.14 0.01 97 1015.6
20201029121730 34 205 0.0 0.0 0.00 0.14 0.01 97 1015.7
20201029121216 34 205 0.0 0.0 0.00 0.14 0.01 97 1015.8
20201029120725 34 205 0.0 0.0 0.00 0.14 0.01 97 1015.8
20201029120222 34 205 0.0 0.0 0.00 0.14 0.01 97 1015.8
20201029115720 34 205 0.0 0.0 0.00 0.14 0.01 97 1015.9
20201029115221 34 205 0.0 0.0 0.00 0.14 0.01 97 1016.0
20201029114721 34 205 0.0 0.0 0.00 0.15 0.01 97 1016.2
20201029114221 34 205 0.0 0.0 0.00 0.15 0.01 97 1016.0
20201029113736 34 205 0.0 0.0 0.00 0.15 0.01 97 1016.0
20201029113221 34 205 0.0 0.0 0.00 0.15 0.01 97 1016.0
20201029112725 33 205 0.0 0.0 0.00 0.15 0.01 97 1015.9
20201029112223 33 205 0.0 0.0 0.00 0.15 0.01 97 1015.9
20201029111721 33 205 0.0 0.0 0.00 0.15 0.01 97 1016.0
20201029111221 33 205 0.0 0.0 0.00 0.15 0.01 97 1015.8
20201029110720 33 205 0.0 0.0 0.00 0.15 0.01 97 1015.8
20201029110220 33 205 0.0 0.0 0.00 0.15 0.01 97 1015.8
20201029105715 33 205 0.0 0.0 0.00 0.15 0.01 97 1015.9
20201029105214 33 205 0.0 0.0 0.00 0.15 0.01 97 1015.8
20201029104715 33 205 0.0 0.0 0.00 0.16 0.01 97 1016.0